EW0538 Weather Reports


Display with metric or nautical units.
time (UTC)temp
F
wind
direction
speed
MPH
gust
MPH
rain 1hr
in
rain 24hr
in
rain mn
in
humidity
%
barometer
mb
20260903061920 53 142 0.0 4.0 0.00 0.01 0.00 90 1011.1
20260903060907 53 137 0.0 1.0 0.00 0.01 0.00 90 1011.1
20260903055842 53 160 0.0 0.0 0.00 0.01 0.01 91 1011.3
20260903053630 54 174 0.0 0.0 0.00 0.01 0.01 90 1011.1
20260903052636 54 250 0.0 0.0 0.00 0.01 0.01 89 1011.1
20260903051601 55 359 0.0 0.0 0.00 0.01 0.01 89 1011.0
20260903050625 55 359 0.0 1.0 0.00 0.01 0.01 89 1010.9
20260903044530 55 134 0.0 0.0 0.00 0.01 0.01 88 1011.1
20260903043555 55 134 0.0 2.0 0.00 0.01 0.01 89 1011.1
20260903042533 56 148 0.0 2.0 0.00 0.01 0.01 88 1011.1
20260903041542 56 132 0.0 0.0 0.00 0.01 0.01 86 1011.2
20260903034256 58 172 0.0 0.0 0.00 0.01 0.01 84 1010.9
20260903033236 58 172 0.0 0.0 0.00 0.01 0.01 84 1010.8
20260903032207 59 172 0.0 0.0 0.00 0.01 0.01 83 1010.5
20260903031204 60 172 0.0 0.0 0.00 0.01 0.01 82 1010.3
20260903030229 60 148 0.0 0.0 0.00 0.01 0.01 81 1010.2
20260903025233 61 126 0.0 1.0 0.00 0.01 0.01 78 1010.0
20260903024222 61 128 0.0 0.0 0.00 0.01 0.01 76 1010.1
20260903023200 61 128 0.0 0.0 0.00 0.01 0.01 75 1009.8
20260903022131 62 347 0.0 0.0 0.00 0.01 0.01 72 1009.4
20260903021148 62 347 0.0 0.0 0.00 0.01 0.01 73 1009.0
20260903020200 62 290 0.0 0.0 0.00 0.01 0.01 73 1008.8
20260903015207 63 290 0.0 0.0 0.00 0.01 0.01 70 1008.5
20260903013039 65 290 0.0 0.0 0.00 0.01 0.01 68 1009.1
20260903012019 66 290 0.0 0.0 0.00 0.01 0.01 65 1009.3
20260903011005 67 0 0.0 0.0 0.00 0.01 0.01 65 1009.4
20260903005931 68 124 0.0 3.0 0.00 0.01 0.01 62 1009.3
20260903004909 70 27 0.0 2.0 0.00 0.01 0.01 61 1009.4
20260903003931 69 148 0.0 0.0 0.00 0.01 0.01 61 1009.7
20260903001822 69 148 0.0 5.0 0.00 0.01 0.01 61 1009.9
20260902235736 71 160 4.0 15.0 0.00 0.01 0.01 53 1010.1
20260902233632 74 257 1.0 5.0 0.00 0.01 0.01 47 1009.3
20260902232614 75 8 0.0 3.0 0.00 0.01 0.01 46 1009.4
20260902231627 74 243 1.0 9.0 0.00 0.01 0.01 48 1009.8
20260902230600 73 15 2.0 9.0 0.00 0.01 0.01 48 1009.9
20260902225616 74 338 1.0 8.0 0.00 0.01 0.01 44 1009.9
20260902224612 74 291 0.0 2.0 0.00 0.01 0.01 45 1009.7
20260902223541 74 133 0.0 0.0 0.00 0.01 0.01 43 1010.0
20260902222546 73 16 0.0 0.0 0.00 0.01 0.01 46 1010.4
20260902214219 72 354 2.0 8.0 0.00 0.01 0.01 49 1010.7
20260902212131 70 328 1.0 11.0 0.00 0.01 0.01 49 1011.0
20260902211120 70 346 3.0 11.0 0.00 0.01 0.01 50 1011.0
20260902210120 71 42 2.0 10.0 0.00 0.01 0.01 50 1011.6
20260902205054 70 111 2.0 13.0 0.00 0.01 0.01 52 1011.5
20260902204104 68 18 5.0 21.0 0.00 0.01 0.01 51 1011.7
20260902203050 70 243 6.0 21.0 0.00 0.01 0.01 47 1012.2
20260902202100 73 356 5.0 19.0 0.00 0.01 0.01 42 1012.0
20260902195947 79 249 3.0 13.0 0.00 0.01 0.01 32 1010.2
20260902193824 79 173 4.0 11.0 0.00 0.01 0.01 34 1010.3
20260902192837 78 114 1.0 10.0 0.00 0.01 0.01 33 1010.3
20260902191848 77 108 1.0 5.0 0.00 0.01 0.01 34 1010.6
20260902185655 78 160 3.0 12.0 0.00 0.01 0.01 35 1010.9
20260902184718 78 131 3.0 12.0 0.00 0.01 0.01 35 1011.2
20260902183650 77 177 1.0 11.0 0.00 0.03 0.01 38 1011.5
20260902181603 76 221 0.0 5.0 0.00 0.02 0.00 44 1012.0
20260902175427 71 161 0.0 4.0 0.00 0.02 0.00 49 1012.8
20260902174447 72 308 0.0 0.0 0.00 0.02 0.00 57 1012.8
20260902173417 72 308 0.0 0.0 0.00 0.02 0.00 52 1012.9
20260902172348 72 150 0.0 1.0 0.00 0.02 0.00 49 1013.0
20260902171318 72 139 0.0 0.0 0.00 0.02 0.00 48 1013.2
20260902170317 72 333 0.0 0.0 0.00 0.02 0.00 50 1013.4
20260902165242 71 291 0.0 1.0 0.00 0.02 0.00 52 1013.6
20260902164239 69 4 0.0 0.0 0.00 0.02 0.00 53 1013.7
20260902163236 67 4 0.0 2.0 0.00 0.02 0.00 55 1013.8
20260902162218 66 346 0.0 1.0 0.00 0.02 0.00 58 1014.1
20260902160100 64 4 0.0 3.0 0.00 0.02 0.00 61 1014.4
20260902155037 63 112 0.0 1.0 0.00 0.02 0.00 62 1014.6
20260902154009 62 136 0.0 0.0 0.00 0.02 0.00 68 1014.6
20260902152957 61 350 0.0 2.0 0.00 0.02 0.00 65 1014.8
20260902150820 60 40 0.0 1.0 0.00 0.02 0.00 70 1015.3
20260902145845 59 133 0.0 1.0 0.00 0.02 0.00 73 1015.5
20260902144817 58 231 0.0 0.0 0.00 0.02 0.00 76 1015.6
20260902143815 56 231 0.0 0.0 0.00 0.02 0.00 80 1015.6
20260902142813 55 151 0.0 0.0 0.00 0.02 0.00 82 1015.8
20260902140704 53 118 0.0 0.0 0.00 0.02 0.00 90 1015.8
20260902135637 49 120 0.0 1.0 0.00 0.02 0.00 95 1015.9
20260902134611 47 322 0.0 0.0 0.00 0.02 0.00 97 1016.0
20260902133556 46 322 0.0 0.0 0.00 0.02 0.00 96 1015.9
20260902132551 46 322 0.0 0.0 0.00 0.02 0.00 96 1015.9
20260902131603 46 118 0.0 0.0 0.00 0.02 0.00 96 1015.9
20260902125508 46 120 0.0 0.0 0.00 0.02 0.00 95 1015.7
20260902124451 47 120 0.0 0.0 0.00 0.02 0.00 95 1015.8
20260902123451 47 120 0.0 0.0 0.00 0.02 0.00 95 1015.6
20260902122448 47 120 0.0 0.0 0.00 0.02 0.00 95 1015.6
20260902121506 47 120 0.0 0.0 0.00 0.02 0.00 95 1015.5
20260902120459 47 120 0.0 0.0 0.00 0.02 0.00 95 1015.4
20260902115453 47 120 0.0 0.0 0.00 0.02 0.00 96 1015.4
20260902114504 47 155 0.0 0.0 0.00 0.02 0.00 96 1015.2
20260902113432 47 249 0.0 0.0 0.00 0.02 0.00 96 1015.3
20260902111325 46 155 0.0 0.0 0.00 0.02 0.00 96 1015.0
20260902110252 46 120 0.0 0.0 0.00 0.02 0.00 96 1014.9
20260902105306 46 120 0.0 0.0 0.00 0.02 0.00 96 1014.8
20260902104328 46 120 0.0 0.0 0.00 0.02 0.00 96 1014.7
20260902103345 46 120 0.0 0.0 0.00 0.02 0.00 96 1014.8
20260902102327 46 120 0.0 0.0 0.00 0.02 0.00 96 1014.7
20260902101321 46 120 0.0 0.0 0.00 0.02 0.00 96 1014.8
20260902100248 46 120 0.0 0.0 0.00 0.02 0.00 96 1014.8
20260902095231 46 120 0.0 0.0 0.00 0.02 0.00 96 1014.9
20260902094240 46 131 0.0 1.0 0.00 0.02 0.00 96 1014.8
20260902093255 45 345 0.0 0.0 0.00 0.02 0.00 96 1014.9
20260902091205 45 345 0.0 0.0 0.00 0.02 0.00 96 1014.9
20260902090849 46 345 0.0 0.0 0.00 0.03 0.00 96 1014.9
20260902085833 46 340 0.0 0.0 0.00 0.03 0.00 96 1014.9
20260902084841 46 120 0.0 0.0 0.00 0.03 0.00 96 1014.8
20260902082808 46 120 0.0 0.0 0.00 0.03 0.00 96 1014.6
20260902081801 46 120 0.0 0.0 0.00 0.03 0.00 96 1014.6
20260902075640 46 120 0.0 0.0 0.00 0.03 0.00 95 1014.7
20260902074631 46 120 0.0 0.0 0.00 0.03 0.00 96 1014.5
20260902073607 47 143 0.0 0.0 0.00 0.03 0.00 96 1014.5
20260902072608 47 143 0.0 0.0 0.00 0.03 0.00 96 1014.4
20260902070417 47 143 0.0 0.0 0.00 0.03 0.00 95 1014.4
20260902065411 48 143 0.0 0.0 0.00 0.03 0.00 95 1014.3
20260902064403 48 145 0.0 0.0 0.00 0.03 0.00 95 1014.4
20260902063413 48 145 0.0 0.0 0.00 0.03 0.00 95 1014.2